Vorticity
nan nan nan nan nan nan nan nan nan nan nan nan nan nan nan nan nan nan nan nan nan nan nan nan nan nan nan nan nan nan nan nan nan nan nan nan nan nan nan nan nan nan nan nan nan nan nan nan nan nan nan nan nan nan nan nan nan nan nan nan nan nan nan nan nan nan nan nan nan nan nan nan nan nan nan nan nan nan nan nan nan nan nan nan nan nan
nan 9 7 8 10 10 7 6 9 10 9 8 8 8 8 9 7 5 3 5 7 9 9 8 7 7 5 2 2 5 7 9 10 10 11 10 9 7 6 8 14 20 20 15 10 8 7 8 7 7 6 7 8 8 9 10 11 12 13 14 12 10 9 8 9 9 10 8 7 6 4 3 3 4 6 7 8 8 8 8 8 8 7 7 7 nan
nan 8 7 7 9 10 8 7 8 9 10 9 9 9 10 10 9 8 6 5 6 8 9 8 8 7 6 3 1 3 7 9 10 11 11 11 10 9 7 7 11 19 21 16 12 8 7 7 6 7 7 7 8 9 9 10 10 11 12 12 11 10 10 10 10 10 10 9 7 6 4 3 4 4 4 5 5 6 6 7 8 8 8 8 8 nan
nan 8 6 5 8 9 9 9 9 9 9 9 9 9 10 9 8 8 7 7 8 8 8 8 9 9 7 3 -0 0 5 9 11 11 12 12 12 11 9 9 12 17 19 17 13 9 7 7 7 7 8 8 8 9 9 9 9 9 10 10 11 11 11 10 10 9 8 7 7 7 6 6 6 5 4 4 4 5 6 7 8 9 10 10 10 nan
nan 8 6 6 8 9 10 10 9 8 7 7 8 8 9 9 8 7 7 8 8 9 8 9 9 9 8 4 -0 -1 4 9 11 12 12 12 12 12 11 10 12 15 18 17 13 10 7 7 7 8 8 9 8 9 9 8 8 8 8 9 10 11 11 10 10 8 7 7 8 9 10 9 8 7 6 5 5 5 6 7 8 9 10 10 11 nan
nan 6 7 8 9 9 10 9 9 7 6 6 7 8 8 9 8 8 7 8 8 9 9 9 9 9 7 3 0 2 6 9 10 11 12 12 12 13 12 12 12 15 17 17 14 10 8 7 8 8 8 8 8 8 9 8 8 8 8 8 9 10 11 10 10 9 9 9 10 11 11 10 9 8 8 7 7 6 6 6 6 6 7 8 9 nan
nan 6 7 8 9 10 10 10 9 7 6 6 7 7 8 9 9 9 8 8 8 8 9 9 9 8 5 2 2 6 8 8 9 9 10 11 12 13 13 13 14 15 18 18 15 11 9 8 8 8 8 8 8 9 8 8 8 8 8 9 9 10 11 11 10 10 10 10 11 11 11 11 10 10 9 9 8 8 7 6 5 4 4 5 6 nan
nan 5 7 9 9 10 10 11 11 9 7 8 8 8 8 9 10 10 10 9 8 8 9 9 9 7 5 4 5 8 10 9 9 8 8 10 12 13 14 14 15 16 19 20 17 13 9 8 8 8 8 8 8 9 8 7 8 8 8 9 10 10 10 10 10 10 10 10 10 11 11 11 11 11 11 10 10 10 9 8 6 5 4 4 4 nan
nan 4 6 9 9 9 9 11 12 11 8 9 10 10 9 9 10 11 11 10 9 8 8 9 9 8 7 7 7 8 10 11 10 9 9 10 10 11 12 15 17 19 22 23 19 14 10 8 8 8 8 9 8 8 7 7 7 8 8 9 10 10 10 10 10 9 9 9 9 10 10 10 10 10 10 10 10 11 10 10 9 7 6 5 5 nan
nan 6 5 7 9 10 10 11 11 11 10 9 10 10 10 10 9 10 10 9 8 8 8 8 8 9 9 9 9 8 9 10 9 8 9 9 9 11 13 16 19 22 26 26 21 15 10 8 8 8 9 9 8 7 7 7 7 8 8 9 9 9 9 8 8 8 8 8 8 8 8 8 8 8 8 8 9 9 9 10 9 9 8 7 6 nan
nan 7 6 6 7 10 11 11 11 11 10 9 9 9 10 10 10 10 9 8 7 8 9 8 8 8 9 9 9 9 10 10 8 6 6 7 10 13 17 19 22 27 31 28 23 16 10 9 9 8 8 8 7 6 6 7 8 8 8 8 8 8 8 7 7 7 6 6 6 6 6 6 6 6 6 6 6 7 7 8 8 8 8 8 8 nan
nan 7 7 7 8 9 9 10 10 11 10 8 7 8 10 11 11 10 9 8 7 8 8 8 8 8 8 7 8 8 10 10 9 7 6 8 10 13 16 20 25 30 32 26 19 14 11 9 8 7 7 7 7 6 6 7 8 8 9 8 8 8 7 6 6 6 6 6 5 5 5 5 5 5 4 4 5 5 6 6 7 7 8 8 8 nan
nan 9 9 9 9 9 9 9 9 9 9 8 8 9 10 10 10 10 10 10 9 8 8 8 8 9 8 7 7 8 9 9 9 9 8 9 9 11 13 15 19 23 24 19 14 13 12 6 5 5 8 7 7 7 7 8 9 9 9 9 8 8 7 6 6 6 5 5 5 5 5 5 4 4 4 4 4 4 5 6 6 7 7 8 8 nan
nan 9 9 9 9 9 10 10 9 9 8 8 9 10 11 11 10 9 9 10 9 9 9 10 9 9 9 9 8 9 10 10 10 9 9 9 9 10 11 12 13 15 16 14 11 10 10 7 5 7 8 7 7 6 7 8 9 9 8 8 8 7 7 6 6 6 5 5 5 5 5 4 4 4 4 4 4 4 5 5 6 7 7 8 8 nan
nan 9 8 8 7 8 9 10 9 9 9 8 9 10 11 11 10 9 10 10 9 8 9 10 10 11 11 10 9 10 11 11 11 10 9 8 8 9 11 12 12 12 12 11 9 7 7 8 9 10 9 9 9 9 9 10 10 9 8 7 7 7 7 6 6 6 5 5 5 5 4 4 4 4 4 4 4 5 5 5 6 6 6 7 7 nan
nan 9 9 8 7 6 8 10 10 10 10 10 11 11 10 9 8 9 10 10 9 8 8 8 9 10 11 10 9 9 11 12 11 10 9 7 7 8 11 13 12 11 10 10 8 6 6 9 11 12 12 14 13 12 12 12 10 8 7 7 7 7 7 6 6 6 5 5 5 4 4 4 4 4 4 4 4 4 5 5 5 5 5 5 5 nan
nan 9 9 9 8 7 8 9 10 10 11 11 10 10 10 9 8 9 9 9 9 9 9 9 8 9 9 8 7 8 11 12 11 10 10 7 6 7 11 13 11 9 9 8 8 7 8 8 9 11 14 15 13 11 11 12 11 9 8 8 7 7 7 6 6 5 5 4 4 4 4 4 4 4 4 4 4 4 4 4 4 4 4 4 4 nan
nan 9 10 10 9 9 8 7 8 10 11 10 9 9 10 11 11 11 10 10 10 10 10 10 10 10 10 8 7 7 9 11 11 11 10 8 7 7 11 12 11 9 8 7 8 8 8 8 8 12 16 15 12 10 10 11 10 9 8 8 7 7 7 6 5 5 4 4 4 4 4 4 4 5 5 4 4 3 3 3 3 3 3 3 3 nan
nan 9 9 10 10 10 9 9 10 11 10 9 9 8 8 10 10 11 11 11 10 10 10 9 10 10 10 10 9 7 8 10 11 11 10 8 7 7 10 12 11 10 9 7 7 8 9 7 7 14 19 15 10 8 8 9 8 8 7 7 6 6 5 5 4 4 4 4 4 4 4 4 5 5 4 4 3 3 3 3 3 3 3 3 4 nan
nan 8 9 11 11 10 9 10 11 11 11 10 10 9 8 8 8 9 9 10 10 10 10 11 10 10 10 10 8 7 8 11 12 11 9 8 7 7 9 12 12 11 10 8 7 8 9 9 10 11 14 14 12 10 8 7 7 6 5 5 5 4 4 4 3 3 3 4 4 4 5 5 5 4 4 4 3 3 3 3 3 3 4 4 4 nan
nan 8 9 11 11 10 10 11 12 13 12 10 8 8 8 8 8 8 8 9 9 10 11 11 12 11 11 10 8 6 9 12 12 10 8 8 8 7 8 10 11 11 9 8 8 8 9 10 9 7 11 15 15 14 12 9 8 7 6 5 5 4 4 4 3 4 4 4 4 5 5 5 5 4 4 4 4 3 3 3 4 4 4 4 4 nan
nan 10 11 11 10 11 12 13 15 14 11 8 6 6 7 8 9 9 8 8 9 10 10 11 11 11 12 10 9 8 10 12 11 9 8 8 8 7 8 10 11 11 9 8 8 8 9 10 9 5 6 11 15 17 16 14 13 10 9 9 9 8 8 8 7 7 6 5 5 5 5 5 5 4 4 4 4 4 4 4 4 4 4 4 4 nan
nan 13 12 10 10 12 13 13 13 12 9 8 8 8 10 12 12 11 9 9 10 10 9 10 10 10 11 10 9 9 10 11 11 10 10 9 8 7 8 11 11 11 9 8 8 8 9 10 9 6 3 6 12 15 15 15 14 14 13 13 13 14 15 15 15 15 14 12 10 9 7 6 5 5 5 5 4 5 4 4 4 4 4 4 5 nan
nan 13 11 10 11 13 13 12 11 10 9 9 10 12 14 15 15 15 13 12 12 11 10 9 8 8 9 10 9 8 9 11 12 12 11 10 9 7 8 11 11 11 8 8 9 9 10 10 9 8 3 2 8 12 13 13 13 13 12 12 13 13 15 17 18 19 20 20 19 17 14 12 10 8 7 6 5 5 5 5 5 5 5 5 5 nan
nan 14 14 16 18 18 17 16 14 12 12 11 11 11 12 13 13 13 12 12 12 11 10 8 7 7 7 8 8 8 9 10 12 13 11 10 9 8 9 10 11 10 7 7 9 10 11 9 8 8 5 1 3 7 11 12 12 12 12 11 11 10 11 12 13 15 18 19 21 22 22 20 18 16 13 11 9 7 6 6 6 5 6 6 6 nan
nan 22 24 25 24 22 19 17 16 15 13 12 12 11 10 9 8 8 9 9 10 9 8 7 7 7 8 9 8 8 8 10 12 13 11 10 9 8 9 10 10 9 9 8 9 10 11 10 8 7 6 3 1 3 8 12 13 13 13 12 11 10 10 10 10 11 11 13 15 17 19 21 22 23 23 20 17 14 10 8 7 6 6 8 9 nan
nan 23 23 21 19 16 15 14 14 13 12 12 13 12 9 7 7 7 7 8 9 8 6 6 7 7 9 10 9 8 8 9 10 11 11 11 10 8 8 9 10 10 11 10 9 9 11 11 8 7 7 6 3 0 3 10 12 13 14 14 13 13 12 12 11 11 11 11 11 12 12 14 17 19 23 26 26 24 20 14 10 8 7 9 11 nan
nan 14 14 13 12 12 11 10 10 11 11 12 11 7 3 6 8 9 7 8 8 8 8 8 8 9 10 10 9 9 9 9 10 10 11 11 11 9 8 9 10 11 11 11 10 9 10 10 9 8 6 7 6 3 1 6 10 11 12 14 15 15 14 14 14 14 13 13 12 12 11 11 11 11 14 19 24 27 28 23 18 14 11 10 10 nan
nan 5 5 7 8 8 6 6 8 10 11 9 6 1 3 9 12 12 10 9 9 9 8 8 9 10 10 10 9 9 10 9 9 11 12 11 10 9 8 9 10 10 10 11 12 10 9 10 9 8 6 6 8 7 3 4 7 8 8 10 12 13 13 14 14 14 14 14 14 13 13 12 11 9 9 11 14 20 25 27 26 24 19 12 9 nan
nan -1 -1 2 4 4 3 4 8 9 8 5 3 2 7 13 15 15 13 11 10 10 9 8 9 10 10 9 9 9 9 9 9 11 13 12 10 9 10 10 10 10 10 11 10 10 9 10 10 10 7 7 8 9 7 7 8 8 6 5 7 7 8 11 12 12 13 13 13 14 14 13 13 11 10 9 9 11 15 22 28 28 20 11 9 nan
nan 1 0 2 3 3 4 6 8 7 3 1 2 6 11 15 16 15 13 11 10 11 10 10 10 10 9 9 9 10 9 8 9 11 14 12 11 10 11 9 9 9 11 12 11 10 9 9 9 8 8 8 8 8 8 9 10 10 10 8 5 1 2 7 9 9 9 9 10 11 12 13 13 13 12 11 10 10 10 14 20 24 17 10 8 nan
nan 6 6 6 6 7 7 8 7 6 3 2 4 8 11 13 14 14 13 11 11 11 11 11 11 10 10 11 11 11 10 9 10 10 12 11 11 11 10 10 9 9 11 13 14 12 10 8 7 6 6 8 8 7 8 9 9 10 11 11 7 0 -0 5 7 7 5 5 6 7 9 10 12 12 13 13 12 11 10 12 15 17 15 11 9 nan
nan 8 8 9 9 9 9 10 9 9 8 7 8 8 9 10 11 12 12 12 13 13 12 10 9 8 9 10 11 11 11 10 12 12 11 10 10 10 10 10 10 10 11 12 14 14 13 10 7 7 7 8 9 8 8 8 8 9 10 10 8 4 3 6 6 6 4 4 4 3 4 7 8 10 12 12 12 12 11 12 13 14 13 12 10 nan
nan 9 9 9 9 9 10 11 11 11 10 9 9 10 10 10 9 10 11 12 13 15 14 12 10 8 7 7 9 10 10 11 11 12 12 11 11 10 10 10 10 10 11 11 11 12 12 11 10 9 10 10 10 10 9 8 8 9 9 8 8 7 6 7 7 6 6 8 7 4 3 4 5 8 9 10 11 11 12 13 13 13 14 14 10 nan
nan 8 8 9 9 9 10 10 10 10 9 9 9 9 10 10 10 9 10 11 12 14 15 15 13 12 10 9 9 10 11 11 10 11 12 12 11 10 11 10 11 10 10 10 10 10 10 10 11 10 11 11 11 11 11 10 9 10 10 9 9 8 8 8 8 7 9 10 9 8 7 7 6 6 6 7 8 10 12 13 14 15 17 16 13 nan
nan 7 8 9 9 9 9 8 8 8 7 7 8 9 10 10 10 10 9 10 11 12 13 14 15 16 17 15 14 13 12 10 9 10 12 13 12 11 11 11 10 10 9 9 9 10 9 9 9 10 11 11 11 10 10 10 10 10 11 10 10 9 9 8 8 8 9 9 9 9 9 9 9 8 4 3 7 10 12 14 15 16 17 17 17 nan
nan 7 7 8 9 9 8 7 7 7 6 7 8 9 10 10 10 10 10 10 11 11 10 10 11 14 20 22 19 17 13 10 9 9 12 15 13 13 12 12 11 10 9 10 9 9 9 8 8 9 11 11 8 7 7 8 9 9 10 10 10 10 9 9 10 10 9 8 9 8 9 10 9 8 5 5 10 12 12 12 13 14 16 18 18 nan
nan 8 7 7 8 9 8 8 8 8 7 8 9 9 10 11 11 11 10 10 11 12 11 9 8 7 12 19 19 18 15 12 11 10 11 15 15 14 12 11 11 10 11 12 11 10 9 8 8 8 10 11 9 8 8 7 8 9 10 11 11 10 9 10 11 11 9 8 8 8 9 10 10 9 8 9 12 12 11 9 7 8 13 16 17 nan
nan 9 9 8 8 9 9 10 9 9 9 11 11 11 10 9 9 10 10 10 10 11 12 12 10 6 5 8 10 13 14 12 11 10 10 13 14 14 12 11 10 9 11 12 12 12 12 10 9 9 9 10 11 11 10 9 9 8 10 12 13 12 10 10 10 10 9 8 8 8 10 11 10 10 10 10 10 10 10 9 6 7 11 14 13 nan
nan 9 10 10 9 10 11 12 11 11 11 11 10 9 8 7 6 7 8 9 8 8 9 10 10 8 6 5 5 6 10 11 12 12 11 10 12 13 13 13 11 10 10 10 12 13 12 12 11 11 10 9 9 9 9 10 9 8 11 13 11 8 7 9 9 10 10 7 6 7 9 10 10 9 10 10 9 10 10 9 7 6 10 13 12 nan
nan 10 10 10 10 10 11 13 14 14 12 9 7 7 7 7 7 7 7 6 6 6 7 7 6 6 7 7 6 5 7 9 11 14 14 10 12 13 15 15 13 11 10 9 10 12 12 12 11 11 10 10 9 9 10 9 9 9 12 12 9 6 5 7 8 9 10 8 7 6 7 9 9 10 10 11 13 13 11 9 7 7 9 12 11 nan
nan 9 10 10 9 9 11 14 14 12 10 8 8 8 8 8 8 8 8 7 7 7 9 9 7 6 6 6 6 5 5 7 9 12 13 11 11 13 15 15 13 11 9 8 9 10 12 13 12 12 10 9 8 9 10 11 11 11 11 10 9 10 12 12 9 7 8 9 10 8 9 11 11 10 10 12 14 14 13 11 8 7 8 10 10 nan
nan 10 11 12 12 12 12 10 9 9 8 8 8 8 8 9 10 9 9 9 9 9 11 11 11 9 7 6 6 6 5 6 8 10 12 13 12 11 12 13 12 11 10 9 9 9 11 12 11 12 13 11 9 8 8 10 11 11 10 9 9 11 13 11 9 8 8 9 11 11 11 11 12 12 12 13 13 13 13 12 12 12 13 13 11 nan
nan 11 12 11 11 10 9 9 10 10 10 9 8 8 8 10 10 10 10 10 10 10 11 11 10 9 8 8 8 9 8 8 8 9 12 15 15 12 10 10 10 10 12 11 10 9 11 11 10 11 12 11 10 10 9 9 10 11 12 12 10 8 6 5 6 7 8 9 11 11 10 11 13 14 13 12 11 11 11 11 12 14 15 15 13 nan
nan 11 10 10 10 10 10 10 11 11 11 10 9 8 8 9 10 11 11 10 9 10 11 11 10 9 9 9 10 11 11 11 10 9 9 9 10 12 12 10 9 9 11 11 11 10 10 10 11 11 11 10 10 11 9 9 9 10 12 12 10 9 6 6 7 8 7 8 10 10 10 12 13 13 12 11 11 11 10 9 10 11 13 12 12 nan
nan 10 10 10 11 12 11 9 9 9 10 10 9 9 8 9 10 12 12 11 10 10 11 11 11 11 10 10 10 10 11 11 10 9 8 5 6 8 11 12 11 9 9 10 10 10 11 12 12 10 9 9 9 11 11 9 8 8 9 10 10 10 11 12 13 12 9 9 9 10 10 13 13 11 10 11 11 12 12 11 10 10 11 11 11 nan
nan 10 9 10 11 11 10 10 10 9 9 9 9 9 9 9 10 12 11 11 11 11 11 11 12 13 12 10 9 9 9 8 8 9 9 7 7 9 11 12 12 12 10 9 9 9 10 11 10 8 6 7 8 10 12 12 10 9 9 9 10 10 12 13 13 12 11 9 9 9 11 12 12 10 10 12 12 12 12 13 13 12 11 11 11 nan
nan 9 9 10 10 10 10 10 9 10 9 9 9 10 11 11 11 10 8 9 10 10 10 11 12 12 11 10 10 10 9 8 8 8 8 7 7 10 12 12 13 13 12 11 11 10 10 9 8 7 5 6 9 11 13 13 11 10 10 10 10 10 10 10 10 11 11 11 10 10 12 12 10 9 10 11 11 11 11 12 13 14 13 12 11 nan
nan 10 10 9 9 10 10 10 10 9 9 9 9 10 12 13 11 7 7 9 9 9 10 11 11 11 10 10 10 11 10 9 9 9 8 8 9 11 12 12 11 11 12 12 12 13 13 14 13 10 6 6 7 9 12 13 12 10 10 11 10 9 9 9 9 10 11 11 11 11 12 12 11 11 10 9 10 10 10 11 12 13 13 12 12 nan
nan 11 11 10 10 10 10 10 10 9 10 10 10 10 10 9 8 9 10 10 10 10 11 11 10 10 10 10 11 11 9 9 9 10 10 10 11 11 11 11 10 11 11 12 12 11 13 17 20 20 16 9 5 4 9 11 11 10 10 11 11 10 8 8 9 9 9 10 11 12 11 12 12 12 11 9 10 10 11 11 11 11 11 11 11 nan
nan nan nan nan nan nan nan nan nan nan nan nan nan nan nan nan nan nan nan nan nan nan nan nan nan nan nan nan nan nan nan nan nan nan nan nan nan nan nan nan nan nan nan nan nan nan nan nan nan nan nan nan nan nan nan nan nan nan nan nan nan nan nan nan nan nan nan nan nan nan nan nan nan nan nan nan nan nan nan nan nan nan nan nan nan nan
CAPE
nan nan nan nan nan nan nan nan nan nan nan nan nan nan nan nan nan nan 0 nan nan nan nan nan nan nan 0 1 0 0 0 0 0 0 0 1 0 0 1 1 1 6 8 9 9 9 11 12 12 5 2 2 4 4 4 6 6 5 12 26 26 38 57 47 47 45 30 19 17 17 20 22 14 14 8 9 13 13 20 26 26 28 31 35 35 30
0 nan nan nan nan nan 0 nan nan nan nan nan nan nan nan nan nan nan nan 0 0 nan nan nan nan nan nan 0 1 1 1 1 1 1 1 0 nan nan 0 nan nan 2 5 7 7 9 11 8 8 1 2 2 4 4 5 2 2 4 14 26 26 38 42 41 41 40 34 27 11 11 10 13 10 10 10 13 19 19 23 28 28 33 38 38 38 40
nan nan nan nan nan nan nan nan nan nan nan nan nan nan nan nan nan nan nan nan nan nan nan nan nan 0 nan 0 3 3 1 2 1 1 1 1 nan nan nan nan nan 1 4 10 10 13 10 5 5 0 2 3 4 4 2 0 0 1 5 14 14 22 24 23 23 23 22 22 9 9 4 6 8 8 15 24 30 30 27 32 32 34 35 37 37 39
nan nan nan 0 0 nan nan nan nan nan nan 0 0 0 nan nan nan nan nan nan nan nan nan 0 0 0 0 0 1 1 2 2 2 2 1 1 0 0 nan nan nan 0 5 13 13 15 11 6 6 3 4 3 1 1 2 0 0 0 1 3 3 8 9 10 10 7 6 7 5 5 3 6 12 12 20 27 29 29 28 31 31 36 38 37 37 35
nan nan nan nan nan nan nan nan nan nan 0 0 nan nan nan nan nan nan 0 nan nan nan nan nan nan nan 0 0 1 1 1 2 2 2 2 1 1 1 0 0 0 1 6 15 15 14 9 5 5 6 5 3 1 1 0 nan nan nan 0 1 1 2 4 4 4 3 2 1 2 2 6 13 18 18 22 28 31 31 32 30 30 33 32 39 39 43
nan nan nan nan nan 0 nan nan nan nan 0 nan nan nan nan nan nan nan nan nan nan nan nan nan nan nan 0 0 1 1 1 1 2 2 2 2 2 2 1 nan nan 0 9 14 14 17 9 5 5 6 6 1 0 0 0 nan nan nan 1 1 1 2 3 3 3 2 2 1 2 2 7 13 17 17 23 27 31 31 32 31 31 29 27 27 27 36
nan nan nan nan nan nan nan nan nan nan nan nan nan nan nan nan nan nan nan nan nan nan nan nan nan nan nan nan 0 0 1 1 2 2 2 2 2 2 1 0 0 0 8 17 17 16 10 8 8 8 4 1 1 1 nan nan nan nan 1 3 3 3 4 4 4 3 0 1 1 1 3 9 13 13 19 25 31 31 33 30 30 26 20 18 18 24
nan nan nan nan nan nan 0 0 nan nan nan nan nan nan nan nan nan nan nan nan nan nan nan nan nan nan nan nan nan nan nan nan nan nan 1 1 1 1 2 1 1 0 2 12 12 18 10 7 7 6 4 3 2 2 1 nan nan nan 0 1 1 3 4 2 2 1 1 0 0 0 1 1 0 0 1 4 6 6 14 20 20 20 17 12 12 12
nan nan nan nan nan nan nan nan 0 0 nan nan nan nan nan nan nan nan nan nan nan nan nan nan nan nan nan nan nan nan 0 0 nan nan nan nan nan nan 1 1 1 1 1 13 13 15 8 7 7 6 4 1 0 0 nan nan nan nan nan 0 0 2 2 1 1 0 nan nan nan nan nan nan nan nan nan nan 0 0 1 4 4 9 11 10 10 9
nan nan nan nan nan nan nan nan nan nan nan nan nan nan nan nan nan nan nan nan nan nan nan nan nan nan nan nan nan nan nan nan 0 0 1 nan 1 1 0 0 0 2 2 9 9 9 4 3 3 4 1 0 nan nan nan nan nan nan nan 0 0 0 0 1 1 0 nan nan nan nan nan nan nan nan nan nan nan nan nan nan nan nan 0 3 3 5
nan nan nan nan nan nan nan nan 0 0 nan nan nan nan nan nan nan nan nan nan nan nan nan nan nan nan nan nan nan nan nan nan nan nan nan nan 0 0 nan nan nan 0 0 3 3 3 0 1 1 1 0 nan nan nan nan nan nan nan nan nan nan 0 nan 0 0 0 nan nan nan nan nan nan nan nan nan nan nan nan nan nan nan nan nan nan nan nan
nan nan nan nan nan nan nan nan nan nan nan nan nan nan nan nan nan nan nan nan nan nan nan nan nan nan nan nan nan nan nan nan nan nan nan nan nan nan nan 0 0 nan 2 3 3 0 nan nan nan nan nan nan nan nan nan nan nan nan nan nan nan nan 0 nan nan nan nan nan nan nan nan nan nan nan nan nan nan nan nan nan nan nan nan nan nan nan
nan nan nan nan nan nan nan nan nan nan nan nan nan nan nan nan nan nan nan nan nan nan nan nan nan nan nan nan nan nan nan nan nan nan nan nan nan nan nan nan nan nan nan nan nan nan nan nan nan nan nan nan nan nan nan nan nan nan nan nan nan nan nan nan nan nan nan nan nan nan nan nan nan nan nan nan nan nan nan nan nan nan nan nan nan nan
nan nan nan nan nan nan nan nan nan nan nan nan nan nan nan nan nan nan nan nan nan nan nan nan nan nan nan nan nan nan nan nan nan nan nan nan nan nan nan nan nan nan nan nan nan nan nan nan nan nan nan nan nan nan nan nan nan nan nan nan nan nan nan nan nan nan nan nan nan nan nan nan nan nan nan nan nan nan nan nan nan nan nan nan nan nan
nan nan nan nan nan nan nan nan nan nan nan nan nan nan nan nan nan nan nan nan nan nan nan nan nan nan nan nan nan nan nan nan nan nan nan nan nan nan nan nan nan nan nan nan nan nan nan nan nan nan nan nan nan nan nan nan nan nan nan nan nan 0 0 nan nan nan nan nan nan nan nan nan nan nan nan nan nan nan nan nan nan nan nan nan nan nan
nan nan nan nan nan nan nan nan nan nan nan nan nan nan nan nan nan nan nan nan nan nan nan nan nan nan nan nan nan nan nan nan nan nan nan nan nan nan nan nan nan nan nan nan nan nan nan nan nan nan nan nan nan nan nan 0 0 nan nan nan nan 0 0 0 0 nan nan nan nan nan nan nan nan nan nan nan nan nan nan nan nan nan nan nan nan nan
nan nan nan nan nan nan nan nan nan nan nan nan nan nan nan nan nan nan nan nan nan nan nan nan nan nan nan nan nan nan nan nan nan nan nan nan nan nan nan nan nan nan nan nan nan nan nan nan nan nan nan 0 nan nan nan 0 0 1 0 0 0 0 0 0 0 nan nan nan nan nan nan nan nan nan nan nan nan nan nan nan nan nan nan nan nan nan
nan nan nan nan nan nan nan nan nan nan nan nan nan nan nan nan nan nan nan nan nan nan nan nan nan nan nan nan nan nan nan nan nan nan nan nan nan nan nan nan nan nan nan nan nan nan nan nan nan nan nan 1 0 0 0 2 2 1 1 0 0 nan nan nan nan nan nan nan nan nan nan nan nan nan nan nan nan nan nan nan nan nan nan nan nan nan
nan nan nan nan nan nan nan nan nan nan nan nan nan nan nan nan nan nan nan nan nan nan nan nan nan nan nan nan nan nan nan nan nan nan nan nan nan nan nan nan nan nan nan nan nan nan nan nan nan 0 nan 0 1 1 2 2 2 2 2 0 0 nan nan nan nan nan nan nan nan nan nan nan nan nan nan nan nan nan nan nan nan nan nan nan nan nan
nan nan nan nan nan nan nan nan nan nan nan nan nan nan nan nan nan nan nan nan nan nan nan nan nan nan nan nan nan nan nan nan nan nan nan nan nan nan nan nan nan nan nan nan nan nan nan nan nan 1 0 nan 3 3 3 3 3 4 2 1 1 0 0 0 0 0 nan nan nan nan nan nan nan nan nan nan nan nan nan nan nan nan nan nan nan nan
nan nan nan nan nan nan nan nan nan nan nan nan nan nan nan nan nan nan nan nan nan nan nan nan nan nan nan nan nan nan nan nan nan nan nan nan nan nan nan nan nan nan nan nan nan nan nan nan nan nan nan nan 1 1 5 5 5 4 4 2 2 1 0 0 0 0 0 0 0 0 nan nan nan nan nan nan nan nan nan nan nan nan nan nan nan nan
nan nan nan nan nan nan nan nan nan nan nan nan nan nan nan nan nan nan nan nan nan nan nan nan nan nan nan nan nan nan nan nan nan nan nan nan nan nan nan nan nan nan nan nan nan nan nan nan nan nan nan 1 nan nan 1 3 3 6 5 4 4 3 1 0 0 0 0 1 1 1 0 nan nan nan nan nan nan nan nan nan nan nan nan nan nan nan
nan nan nan nan nan nan nan nan nan nan nan nan nan nan nan nan nan nan nan nan nan nan nan nan nan nan nan nan nan nan nan nan nan nan nan nan nan nan nan nan nan nan nan nan nan nan nan nan nan nan 0 1 0 0 nan 0 0 1 2 4 4 6 4 6 6 6 5 6 6 6 3 1 1 1 0 nan nan nan nan nan nan nan nan nan nan nan
nan nan nan nan nan nan nan nan nan nan nan nan nan nan nan nan nan nan nan nan nan nan nan nan nan nan nan nan nan nan nan nan nan nan nan nan nan nan nan nan nan nan nan nan nan nan nan nan nan nan 0 0 0 0 nan 0 0 nan 0 0 0 1 0 1 1 2 7 8 14 14 11 9 7 7 4 1 nan nan nan nan nan nan nan nan nan nan
nan nan nan nan nan nan nan nan nan nan nan nan nan nan nan nan nan nan nan nan nan nan nan nan nan nan nan nan nan nan nan nan nan nan nan nan nan nan nan nan nan nan nan nan nan nan nan nan nan nan nan nan nan nan nan 0 0 nan nan 0 0 1 1 1 1 2 1 2 9 9 10 15 14 14 11 8 3 3 0 nan nan nan nan nan nan nan
nan nan nan nan nan nan nan 0 0 0 nan nan nan nan nan nan nan nan nan nan nan nan nan nan nan nan nan nan nan nan nan nan nan nan nan nan nan nan nan nan nan nan nan nan nan nan nan nan nan nan nan nan nan nan nan nan nan nan nan nan nan nan 0 0 0 0 1 2 2 2 3 9 10 10 16 15 10 10 6 1 1 0 nan nan nan nan
0 0 1 1 1 1 1 2 2 2 1 0 nan nan nan nan nan nan nan nan nan nan nan nan nan nan nan nan nan nan nan nan nan nan nan nan nan nan nan nan nan nan nan nan nan nan nan nan nan nan nan nan nan nan nan nan nan nan nan nan nan nan 0 0 0 0 0 1 1 1 2 2 3 3 8 10 13 13 13 7 7 2 0 1 1 nan
1 1 1 1 1 1 2 2 2 2 2 2 1 1 nan nan nan nan nan nan nan nan nan nan nan nan nan nan nan nan nan nan nan nan nan nan nan nan nan nan nan nan nan nan nan nan nan nan nan nan nan nan nan nan nan nan nan nan nan nan nan nan nan nan nan 0 0 0 0 0 1 1 2 2 2 2 4 4 10 13 13 8 4 nan nan nan
0 0 1 1 1 1 2 3 4 4 4 4 2 2 nan nan nan nan nan nan nan nan nan nan nan nan nan nan nan nan nan nan nan nan nan nan nan nan nan nan nan nan nan nan nan nan nan nan nan nan nan nan nan nan nan nan nan nan nan nan nan nan nan nan nan nan nan nan nan nan nan nan nan nan 0 0 1 1 1 10 10 10 2 nan nan nan
nan 3 1 4 4 7 4 2 4 4 5 6 2 2 nan nan nan nan nan nan nan nan nan nan nan nan nan nan nan nan nan nan nan nan nan nan nan nan nan nan nan nan nan nan nan nan nan nan nan nan nan nan nan nan nan nan nan nan nan nan nan nan nan nan nan nan nan nan nan nan nan nan nan nan nan nan nan nan 1 2 2 12 nan nan nan nan
nan nan nan nan nan nan nan nan nan nan 8 8 2 2 nan nan nan nan nan nan nan nan nan nan nan nan nan nan nan nan nan nan nan nan nan nan nan nan nan nan nan nan nan nan nan nan nan nan nan nan nan nan nan nan nan nan nan nan nan nan nan nan nan nan nan nan nan nan nan nan nan nan nan nan nan nan nan nan nan 0 0 nan nan nan nan nan
nan nan nan nan nan nan nan nan nan nan nan nan nan nan 0 nan nan nan nan nan nan nan nan nan nan nan nan nan nan nan nan nan nan nan nan nan nan nan nan nan nan nan nan nan nan nan nan nan nan nan nan nan nan nan nan nan nan nan nan nan nan nan nan nan nan nan nan nan nan nan nan nan nan nan nan nan nan nan nan nan nan nan nan nan nan nan
nan nan nan nan nan nan nan nan nan nan nan nan nan nan nan nan 0 0 nan nan nan nan nan nan nan nan nan nan nan nan nan nan nan nan nan nan nan nan nan nan nan nan nan nan nan nan nan nan nan nan nan nan nan nan nan nan nan nan nan nan nan nan nan nan nan nan nan nan nan nan nan nan nan nan nan nan nan nan nan nan nan nan nan nan nan nan
nan nan nan nan nan nan nan nan nan nan nan nan nan nan nan nan nan nan nan nan nan nan nan nan nan nan nan nan nan nan nan nan 1 1 nan nan nan nan nan nan nan nan nan nan nan nan nan nan nan nan nan nan nan nan nan nan nan nan nan nan nan nan nan nan nan nan nan nan nan nan nan nan nan nan nan nan nan nan nan nan nan nan nan nan nan nan
nan nan nan nan nan nan nan nan nan nan nan nan nan nan nan nan nan nan nan nan nan nan nan nan nan nan nan nan nan nan nan nan nan nan 1 nan nan nan nan nan nan nan nan nan nan nan nan nan nan nan nan nan nan nan nan nan nan nan nan nan nan nan nan nan nan nan nan nan nan nan nan nan nan nan nan nan nan nan nan nan nan nan nan nan nan nan
nan nan nan nan nan nan nan nan nan nan nan nan nan nan nan nan nan nan nan nan nan nan nan nan nan nan nan nan nan nan nan nan nan nan 0 nan nan nan nan nan nan nan nan nan nan nan nan nan nan nan nan nan nan nan nan nan nan nan nan nan nan nan nan nan nan nan nan nan nan nan nan nan nan nan nan nan nan nan nan nan nan nan nan nan nan nan
nan nan nan nan nan nan nan nan nan nan nan nan nan nan nan nan nan nan nan nan nan nan nan nan nan nan nan nan nan nan nan nan nan nan nan nan nan nan nan nan nan nan nan nan nan nan nan nan nan nan nan nan nan nan nan nan nan nan nan nan nan nan nan nan nan nan nan nan nan nan nan nan nan nan nan nan nan nan nan nan nan nan nan nan nan nan
nan nan nan nan nan nan nan nan nan nan nan nan nan nan nan nan nan nan nan nan nan nan nan nan nan nan 0 0 nan nan nan nan nan nan nan nan nan nan nan nan nan nan nan nan nan nan nan nan nan nan nan nan nan nan nan nan nan nan nan nan nan nan nan nan nan nan nan nan nan nan nan nan nan nan nan nan nan nan nan nan nan nan nan nan nan nan
nan nan nan nan nan nan nan nan nan nan nan nan nan nan nan nan nan nan nan nan nan nan nan nan nan nan nan nan 0 0 nan nan nan nan nan nan nan nan nan nan nan nan nan nan nan nan nan nan nan nan nan nan nan nan nan nan nan nan nan nan nan nan nan nan nan nan nan nan nan nan nan nan nan nan nan nan nan nan nan nan nan nan nan nan nan nan
nan nan nan nan nan nan nan nan nan nan nan nan nan nan nan nan nan nan nan nan nan nan nan nan nan nan nan nan nan nan nan nan nan nan nan nan nan nan nan nan nan nan nan nan nan nan nan nan nan nan nan nan nan nan nan nan nan nan nan nan nan nan nan nan nan nan nan nan nan nan nan nan nan nan nan nan nan nan nan nan nan nan nan nan nan nan
nan nan nan nan nan nan nan nan nan nan nan nan nan nan nan nan nan nan nan nan nan nan nan nan nan nan nan nan nan nan nan nan nan nan nan nan nan nan nan nan nan nan nan nan nan nan nan nan nan nan nan nan nan nan nan nan nan nan nan nan nan nan nan nan nan nan nan nan nan nan nan nan nan nan nan nan nan nan nan nan nan nan nan nan nan nan
nan nan nan nan nan nan nan nan nan nan nan nan nan nan nan nan nan nan nan nan nan nan nan nan nan nan nan nan nan nan nan nan nan nan nan nan nan nan nan nan nan nan nan nan nan nan nan nan nan nan nan nan nan nan nan nan nan nan nan nan nan nan nan nan nan nan nan nan nan nan nan nan nan nan nan nan nan nan nan nan nan nan nan nan nan nan
nan nan nan nan nan nan nan nan nan nan nan nan nan nan nan nan nan nan nan nan nan nan nan nan nan nan nan nan nan nan nan nan nan nan nan nan nan nan nan nan nan nan nan nan nan nan nan nan nan nan nan nan nan nan nan nan nan nan nan nan nan nan nan nan nan nan nan nan nan nan nan nan nan nan nan nan nan nan nan nan nan 0 0 0 0 nan
nan nan nan nan nan nan nan nan nan nan nan nan nan nan nan nan nan nan nan nan nan nan nan nan nan nan nan nan nan nan nan nan nan nan nan nan nan nan nan nan nan nan nan nan nan nan nan nan nan nan nan nan nan nan nan nan nan nan nan nan nan nan nan nan nan nan nan nan nan nan nan nan nan nan nan nan nan nan nan nan nan nan nan nan nan nan
nan nan nan nan nan nan nan nan nan nan nan nan nan nan nan nan nan nan nan nan nan nan nan nan nan nan nan nan nan nan nan nan nan nan nan nan 1 1 nan nan nan nan nan nan nan nan nan nan nan nan nan nan nan nan nan nan nan nan nan nan nan nan nan nan nan nan nan nan nan nan nan nan nan nan nan nan nan nan nan nan nan nan nan nan nan nan
nan nan nan nan nan nan nan nan nan nan nan nan nan nan nan nan nan nan nan nan nan nan nan nan nan nan nan nan nan nan nan nan nan nan nan nan nan nan 0 nan nan nan nan nan nan nan nan nan nan nan nan nan nan nan nan nan nan nan nan nan nan nan nan nan nan nan nan nan nan nan nan nan nan nan nan nan nan nan nan nan nan nan nan nan nan nan
nan nan nan nan nan nan nan nan nan nan nan nan nan nan nan nan nan nan nan nan nan nan nan nan nan nan nan nan nan nan nan nan nan nan nan nan nan nan nan 0 0 nan nan nan nan nan nan nan nan nan nan nan nan nan nan nan nan nan nan nan nan nan nan nan nan nan nan nan nan nan nan nan nan nan nan nan nan nan nan nan nan nan nan nan nan nan
nan nan nan nan nan nan nan nan nan nan nan nan nan nan nan nan nan nan nan nan nan nan nan nan nan nan nan nan nan nan nan nan nan nan nan nan nan nan nan nan nan nan nan 0 0 nan nan nan nan nan nan nan nan nan nan nan nan nan nan nan nan nan nan nan nan nan nan nan nan nan nan nan nan nan nan nan nan nan nan nan nan nan nan nan nan nan
nan nan nan nan nan nan nan nan nan nan nan nan nan nan nan nan nan nan nan nan nan nan nan nan nan nan nan nan nan nan nan nan nan nan nan nan nan nan nan nan nan nan nan nan nan nan nan nan nan nan nan nan nan nan nan nan nan nan nan nan nan nan nan nan nan nan nan nan nan nan nan nan nan nan nan nan nan nan nan nan nan nan nan nan nan nan
nan nan nan nan nan nan nan nan nan nan nan nan nan nan nan nan nan nan nan nan nan nan nan nan nan nan nan nan nan nan nan nan nan nan nan nan nan nan nan nan nan nan nan nan nan nan nan nan nan nan 0 nan nan nan nan nan nan nan nan nan nan nan nan nan nan nan nan nan nan nan nan nan nan nan nan nan nan nan nan nan nan nan nan nan nan nan
nan nan nan nan nan nan nan nan nan nan nan nan nan nan nan nan nan nan nan nan nan nan nan nan nan nan nan nan nan nan nan nan nan nan nan nan nan nan nan nan nan nan nan nan nan nan nan nan nan nan nan 4 nan nan nan nan nan nan nan nan nan nan nan nan nan nan nan nan nan nan nan nan nan nan nan nan nan nan nan nan nan nan nan nan nan nan